Погода в Качелино

Россия / Республика Татарстан     56°03′32″N   49°48′41″E
темп.,
°C
ветер,
м/с
пор.,
м/с
влажн.,
%
обл.,
%
осадки,
мм/ч
давл.,
гПа
погр.,
м
13 июня, вс
вс1300:00+14вюв379824 0.0 1012160
03:00+13юв339833 0.0 101257
06:00+16ююв358945 0.0 1012230
09:00+21ю5773100 0.0 1012767
12:00+24ю67620 0.1 10121256
15:00+24ю79605 0.4 10121462
18:00+22ю597710 0.9 1012508
21:00+17ю412905 2.8 1013243
14 июня, пн
пн1400:00+16ю4109341 0.0 1013229
03:00+15ю389529 0.0 1014153
06:00+18ю488861 0.0 1015274
09:00+22ююз5772100 0.0 1015827
12:00+25ююз68618 0.4 10151563
15:00+25юз57586 1.3 10151546
18:00+22юз4779100 4.6 1015208
21:00+18ююз228861 5.1 101520
15 июня, вт
вт1500:00+17з11895 0.0 101511
03:00+16сз11880 0.0 101511
06:00+20ссз11811 0.0 1015123
09:00+24всв00652 0.0 1014712
12:00+26ююз12565 0.0 10131348
15:00+27зюз12516 0.0 10121735
18:00+26з116316 0.0 1011130
21:00+20ю1277100 0.1 101111
16 июня, ср
ср1600:00+18ююз1186100 0.0 101111
03:00+18юв1187100 0.1 101111
06:00+20юв2286100 0.1 1010155
09:00+23ююв237374 0.1 1010511
12:00+24ююз4569100 4.0 1009743
15:00+26зюз235879 4.6 10081249
18:00+23з477511 1.3 1007195
21:00+17ссз3794100 3.1 1009213
17 июня, чт
чт1700:00+16ссз614935 0.0 1009495
03:00+12ссз413892 0.0 1012345
06:00+14ссз511825 0.0 1014491
09:00+17ссз711540 0.0 10151427
12:00+19ссз795242 0.0 10162194
15:00+17ссз61060100 0.0 1017687
18:00+17ссз59630 0.0 1018729
21:00+12сз410785 0.0 1020202